North Conway, NH

3:39 PM EDT on July 26, 2017 (GMT -0400)
North Conway

Weather History for KCWN - June, 2014

Change the Weather History Date:

Friday, June 6, 2014

  Actual Average (KIZG) Record (KIZG)
Temperature  
Mean Temperature 64 °F -  
Max Temperature 73 °F 71 °F 82 °F (2011)
Min Temperature 56 °F 44 °F 34 °F (1997)
Growing Degree Days 14 (Base 50)    
Moisture  
Dew Point 43 °F    
Average Humidity 49    
Maximum Humidity 75    
Minimum Humidity 30    
Precipitation  
Precipitation 0.02 in - - ()
Sea Level Pressure  
Sea Level Pressure 29.90 in    
Wind  
Wind Speed 9 mph (South)    
Max Wind Speed 22 mph    
Max Gust Speed 36 mph    
Averages and records for this station are not official NWS values.
T = Trace of Precipitation, MM = Missing Value Source: NWS Daily Summary

Daily Weather History Graph

Daily Weather History Graph

Search for Another Location

Airport or City:

Trip Planner

Search our weather history database for the weather conditions in past years. The results will help you decide how hot, cold, wet, or windy it might be!

Date:

Astronomy

Jun. 06, 2014 Rise Set
Actual Time 5:02 AM EDT 8:24 PM EDT
Civil Twilight 4:26 AM EDT 9:00 PM EDT
Nautical Twilight 3:40 AM EDT 9:47 PM EDT
Astronomical Twilight 2:42 AM EDT 10:45 PM EDT
Moon 1:27 PM EDT (6/6) 1:06 AM EDT (6/6)
Length of Visible Light 16h 33m
Length of Day
15h 21m
First Quarter, 58% of the Moon is Illuminated
Jun 6
First Quarter
Jun 13
Full
Jun 19
Last Quarter
Jun 27
New
Jul 5
First Quarter

Hourly Weather History & Observations

Time (EDT) Temp. Dew Point Humidity Pressure Visibility Wind Dir Wind Speed Gust Speed Precip Events Conditions
12:56 AM 59.0 °F 43.7 °F 57% 30.19 in - Variable 2.3 mph - N/A   Mostly Cloudy
1:56 AM 57.4 °F 38.7 °F 50% 29.98 in - Variable 2.3 mph - N/A   Mostly Cloudy
2:56 AM 56.7 °F 38.3 °F 50% 29.96 in - South 3.5 mph - N/A   Overcast
3:56 AM 56.3 °F 41.4 °F 57% 29.93 in - SW 6.9 mph - N/A   Overcast
4:46 AM 57.2 °F 41.0 °F 55% 30.16 in - South 5.8 mph - N/A   Overcast
4:56 AM 56.8 °F 40.6 °F 55% 29.93 in - SSW 5.8 mph - N/A   Overcast
5:56 AM 57.0 °F 41.9 °F 57% 29.89 in - South 12.7 mph 21.9 mph N/A   Mostly Cloudy
6:56 AM 57.0 °F 40.8 °F 55% 29.91 in - SSW 17.3 mph 25.3 mph N/A   Mostly Cloudy
7:56 AM 56.5 °F 43.0 °F 61% 29.91 in - South 11.5 mph - N/A   Mostly Cloudy
8:56 AM 56.5 °F 46.9 °F 70% 29.91 in - SSE 10.4 mph 19.6 mph N/A   Mostly Cloudy
9:56 AM 56.5 °F 48.7 °F 75% 29.93 in - SSE 13.8 mph 18.4 mph N/A   Mostly Cloudy
10:31 AM 60.8 °F 50.0 °F 68% 30.11 in - SE 15.0 mph 26.5 mph N/A   Scattered Clouds
11:56 AM 64.0 °F 50.2 °F 61% 29.88 in - SSE 19.6 mph 31.1 mph N/A   Partly Cloudy
12:56 PM 65.3 °F 50.4 °F 58% 29.87 in - SSE 16.1 mph 29.9 mph N/A   Scattered Clouds
1:56 PM 67.8 °F 48.4 °F 50% 29.85 in - SSE 18.4 mph 35.7 mph N/A   Clear
2:56 PM 67.6 °F 48.2 °F 50% 29.82 in - SSE 21.9 mph 29.9 mph N/A   Clear
3:56 PM 70.9 °F 44.6 °F 39% 29.78 in - South 13.8 mph 29.9 mph N/A   Clear
4:36 PM 71.6 °F 44.6 °F 38% 30.00 in - SE 17.3 mph 27.6 mph N/A   Clear
4:56 PM 73.2 °F 41.7 °F 32% 29.74 in - SSE 17.3 mph 34.5 mph N/A   Clear
5:02 PM 73.4 °F 44.6 °F 36% 30.01 in - East 11.5 mph 26.5 mph N/A   Clear
5:03 PM 73.4 °F 44.6 °F 36% 30.01 in - NNW 17.3 mph 34.5 mph N/A   Clear
5:56 PM 69.1 °F 36.3 °F 30% 29.77 in - NNW 10.4 mph 19.6 mph N/A   Partly Cloudy
6:56 PM 69.8 °F 40.5 °F 34% 29.74 in - ESE 8.1 mph - N/A   Mostly Cloudy
7:56 PM 69.3 °F 39.2 °F 33% 29.78 in - Variable 2.3 mph - N/A   Mostly Cloudy
8:56 PM 63.5 °F 50.7 °F 63% 29.81 in - West 8.1 mph - 0.02 in   Mostly Cloudy
9:56 PM 65.5 °F 41.9 °F 42% 29.82 in - NW 8.1 mph - N/A   Mostly Cloudy
10:56 PM 65.1 °F 38.5 °F 37% 29.81 in - WNW 6.9 mph - N/A   Mostly Cloudy
11:56 PM 66.0 °F 35.4 °F 32% 29.82 in - NW 9.2 mph - N/A   Mostly Cloudy